Back to catalog

STARLINK-37578

AliveCommunicationsVLEO
NORAD 69451·PAYLOAD·🇺🇸 United States

Launched Jun 8, 2026 from Cape Canaveral Space Force Station

Loading…

Next Passes (next 24 hours)

TLE

FreshSource: CelesTrak SupGP

Epoch: Sep 15, 2026, 04:15 UTC

1 69451C 26127J   26258.17756944 -.00022590  00000+0 -66768-3 0  2582
2 69451  53.1590 190.3520 0001279  83.0238  90.3412 15.34390086    12

Track STARLINK-37578 in real time with AllMySat

Download on the App Store